Aérodrome :
LOGIN :

S'inscrire | Disclaimer

   EN    FR    IT 

 










Légende :    VFR   VFR Marginal   IFR   IFR Intensif   IFR Très Intensif
Visi : 
Plafond : 
>= 8 km
>= 3000ft
5 à 8 km
1000 à 3000 ft
1500m à 5 km
500 à 1000 ft
800 à 1500m
200 à 500 ft
< 800m
< 200 ft
Symboles :   Orages  Brouillard  Fortes neiges  Fortes précipitations  Vent > 20 kt
SIGMETs :   Divers  Orages  Givrage  Turbulence  Onde Orograph.  Cendres Volcan.







- Altitude de l'aérodrome : 120 ft
- Code IATA : MME
- Voir les cartes d'approche


EGNV - Durham Tees valley

DERNIER METAR :
  • 210950Z 19009KT 9000 NSC 17/07 Q1021

METARs EXPIRÉS :
  • 210920Z 20009KT 9000 NSC 16/07 Q1021
  • 210850Z 19009KT 9000 NSC 15/07 Q1022
  • 210820Z 20010KT 9000 NSC 14/07 Q1022
  • 210750Z 20009KT 9000 NSC 12/06 Q1022
  • 210720Z 20010KT 9000 NSC 11/06 Q1022
  • 210650Z 21009KT 9000 NSC 10/06 Q1023

TAF TAF EGNV
Valide du 21 à 09h jusqu'au 21 à 18h UTC


210801Z 2109/2118 18008KT 9000 NSC
BECMG 2109/2112 CAVOK
ATIS : +44 9012 018 111
Pas de NOTAMs connus pour ce terrain.



MET'MAP, la Météo Aéronautique d'un coup d'oeil ! - Copyright ORBIFLY Décembre 2007 - Disclaimer

ORBIFLY MET'MAP TEAM :

Programmation & Développement : Alexandra Zaïnal
Conception & Développement : Baudouin d'Aumeries
Co-Programmation & Développement : Marc-Olivier Méhu
Soutien technique & logistique : Manuel Goepfert

Contact : metmap@orbifly.com




SOURCES & CREDITS :

   NOAA